{"data":{"norad_id":37165,"intl_designator":"2010-047A","name":"YAOGAN-11","alt_names":[],"object_type":"PAYLOAD","status":"ACTIVE","operator":null,"country":"PRC","launch_date":"2010-09-22","launch_site_code":"JSC","launch_vehicle":null,"mission":null,"orbit_class":"UNKNOWN","rcs_meters":3.3345,"size_class":null,"mass_kg":null,"dimensions":null,"purposes":[],"wikipedia_slug":null,"has_3d_model":false,"image_url":null,"decayed_at":null,"tle_current":{"epoch":"2026-09-20T02:30:38.283264Z","epoch_age_seconds":59993,"freshness":"FRESH","line1":"1 37165U 10047A   26263.10460976  .00000419  00000+0  59637-4 0  9993","line2":"2 37165  98.3696 133.6197 0033485 298.4079  61.3759 14.82200180862156","mean_motion":14.8220018,"eccentricity":0.0033485,"inclination_deg":98.3696,"raan_deg":133.6197,"arg_perigee_deg":298.4079,"mean_anomaly_deg":61.3759,"bstar":5.9637e-5,"rev_number":86215,"period_min":97.152869054435,"perigee_km":598.94657060905,"apogee_km":645.82908538213,"semimajor_km":7000.5248279956,"source":"CELESTRAK","updated_at":"2026-09-20T09:00:13.757821Z"}}}